• In Italy
  • List of Countries
  • For 7 days
  • Water Temperature
  • Satellite Maps
  • Weather Map
  • Weather Widgets
  • user-avatar
    Login

    Hourly Weather Ahmadabad

    Today, 22 July, Sunday

    Time Temperature Precipitation Wind Pressure Humidity
    00:00 +30°C° 0.1 mm 4 mps 746 mmHg 78%
    01:00 +30°C° 0.1 mm 4 mps 746 mmHg 79%
    02:00 +29°C° 0.1 mm 4 mps 745 mmHg 80%
    03:00 +29°C° 0.3 mm 4 mps 745 mmHg 81%
    04:00 +29°C° 0.3 mm 4 mps 745 mmHg 81%
    05:00 +29°C° 0.3 mm 4 mps 745 mmHg 81%
    06:00 +29°C° 1.1 mm 4 mps 746 mmHg 81%
    07:00 +29°C° 1.1 mm 4 mps 746 mmHg 81%
    08:00 +29°C° 1.1 mm 4 mps 746 mmHg 81%
    09:00 +29°C° 0.9 mm 5 mps 746 mmHg 80%
    10:00 +29°C° 0.9 mm 5 mps 746 mmHg 79%
    11:00 +29°C° 0.9 mm 5 mps 746 mmHg 78%
    12:00 +30°C° 0.2 mm 5 mps 746 mmHg 75%
    13:00 +30°C° 0.2 mm 5 mps 746 mmHg 73%
    14:00 +32°C° 0.2 mm 5 mps 745 mmHg 70%
    15:00 +32°C° 0 mm 5 mps 745 mmHg 69%
    16:00 +32°C° 0 mm 5 mps 745 mmHg 69%
    17:00 +32°C° 0 mm 5 mps 744 mmHg 68%
    18:00 +32°C° 0 mm 5 mps 745 mmHg 71%
    19:00 +30°C° 0 mm 4 mps 745 mmHg 73%
    20:00 +30°C° 0 mm 4 mps 745 mmHg 75%
    21:00 +30°C° 0 mm 4 mps 745 mmHg 76%
    22:00 +30°C° 0 mm 4 mps 745 mmHg 77%
    23:00 +29°C° 0 mm 5 mps 745 mmHg 78%

    Tomorrow, 23 July, Monday

    Time Temperature Precipitation Wind Pressure Humidity
    00:00 +29°C° 0 mm 5 mps 745 mmHg 78%
    01:00 +29°C° 0 mm 4 mps 745 mmHg 79%
    02:00 +29°C° 0 mm 4 mps 744 mmHg 79%
    03:00 +29°C° 0.2 mm 4 mps 744 mmHg 80%
    04:00 +29°C° 0.2 mm 4 mps 744 mmHg 80%
    05:00 +29°C° 0.2 mm 4 mps 744 mmHg 81%
    06:00 +29°C° 0.4 mm 4 mps 744 mmHg 81%
    07:00 +29°C° 0.4 mm 4 mps 744 mmHg 81%
    08:00 +29°C° 0.4 mm 4 mps 745 mmHg 81%
    09:00 +29°C° 0.3 mm 4 mps 745 mmHg 80%
    10:00 +29°C° 0.3 mm 5 mps 745 mmHg 80%
    11:00 +29°C° 0.3 mm 5 mps 745 mmHg 79%
    12:00 +30°C° 0.3 mm 5 mps 744 mmHg 77%
    13:00 +30°C° 0.3 mm 5 mps 744 mmHg 76%
    14:00 +30°C° 0.3 mm 5 mps 744 mmHg 74%
    15:00 +30°C° 0.9 mm 5 mps 744 mmHg 76%
    16:00 +30°C° 0.9 mm 5 mps 744 mmHg 78%
    17:00 +29°C° 0.9 mm 5 mps 743 mmHg 80%
    18:00 +29°C° 1.3 mm 5 mps 744 mmHg 82%
    19:00 +29°C° 1.3 mm 5 mps 744 mmHg 83%
    20:00 +28°C° 1.3 mm 5 mps 744 mmHg 85%
    21:00 +28°C° 0.8 mm 5 mps 745 mmHg 85%
    22:00 +28°C° 0.8 mm 5 mps 745 mmHg 85%
    23:00 +28°C° 0.8 mm 5 mps 745 mmHg 86%

    Day after tomorrow, 24 July, Tuesday

    Time Temperature Precipitation Wind Pressure Humidity
    00:00 +28°C° 0.4 mm 5 mps 745 mmHg 86%
    01:00 +28°C° 0.4 mm 5 mps 745 mmHg 85%
    02:00 +28°C° 0.4 mm 5 mps 744 mmHg 85%
    03:00 +28°C° 0.6 mm 5 mps 744 mmHg 85%
    04:00 +28°C° 0.6 mm 5 mps 744 mmHg 85%
    05:00 +28°C° 0.6 mm 5 mps 744 mmHg 85%
    06:00 +28°C° 0.5 mm 5 mps 745 mmHg 84%
    07:00 +28°C° 0.5 mm 4 mps 745 mmHg 83%
    08:00 +28°C° 0.5 mm 4 mps 745 mmHg 83%
    09:00 +29°C° 0.5 mm 4 mps 746 mmHg 80%
    10:00 +30°C° 0.5 mm 5 mps 746 mmHg 77%
    11:00 +30°C° 0.5 mm 5 mps 746 mmHg 74%
    12:00 +30°C° 0.6 mm 5 mps 746 mmHg 75%
    13:00 +30°C° 0.6 mm 5 mps 745 mmHg 75%
    14:00 +30°C° 0.6 mm 5 mps 745 mmHg 76%
    15:00 +30°C° 0.2 mm 5 mps 745 mmHg 76%
    16:00 +30°C° 0.2 mm 5 mps 745 mmHg 75%
    17:00 +30°C° 0.2 mm 5 mps 745 mmHg 75%
    18:00 +30°C° 0.1 mm 5 mps 745 mmHg 77%
    19:00 +29°C° 0.1 mm 4 mps 745 mmHg 80%
    20:00 +29°C° 0.1 mm 4 mps 746 mmHg 82%
    21:00 +29°C° 0.1 mm 4 mps 746 mmHg 82%
    22:00 +29°C° 0.1 mm 4 mps 746 mmHg 83%
    23:00 +29°C° 0.1 mm 4 mps 746 mmHg 84%

    25 July, Wednesday

    Time Temperature Precipitation Wind Pressure Humidity
    00:00 +29°C° 0.1 mm 4 mps 746 mmHg 83%
    01:00 +29°C° 0.1 mm 5 mps 745 mmHg 83%
    02:00 +28°C° 0.1 mm 5 mps 745 mmHg 83%
    03:00 +28°C° 0 mm 5 mps 745 mmHg 83%
    04:00 +28°C° 0 mm 5 mps 745 mmHg 82%
    05:00 +28°C° 0 mm 5 mps 745 mmHg 82%
    06:00 +29°C° 0.1 mm 5 mps 746 mmHg 80%
    07:00 +29°C° 0.1 mm 6 mps 746 mmHg 79%
    08:00 +29°C° 0.1 mm 6 mps 746 mmHg 77%
    09:00 +30°C° 0.2 mm 6 mps 747 mmHg 76%
    10:00 +30°C° 0.2 mm 7 mps 747 mmHg 75%
    11:00 +30°C° 0.2 mm 7 mps 747 mmHg 74%
    12:00 +30°C° 0.2 mm 7 mps 746 mmHg 72%
    13:00 +32°C° 0.2 mm 7 mps 746 mmHg 71%
    14:00 +32°C° 0.2 mm 7 mps 746 mmHg 69%
    15:00 +32°C° 0.1 mm 7 mps 745 mmHg 69%
    16:00 +32°C° 0.1 mm 7 mps 745 mmHg 69%
    17:00 +32°C° 0.1 mm 7 mps 745 mmHg 68%
    18:00 +32°C° 0 mm 6 mps 745 mmHg 71%
    19:00 +30°C° 0 mm 5 mps 746 mmHg 74%
    20:00 +30°C° 0 mm 5 mps 746 mmHg 77%
    21:00 +29°C° 0 mm 5 mps 746 mmHg 78%
    22:00 +29°C° 0 mm 5 mps 746 mmHg 79%
    23:00 +29°C° 0 mm 5 mps 746 mmHg 80%

    26 July, Thursday

    Time Temperature Precipitation Wind Pressure Humidity
    00:00 +29°C° 0 mm 5 mps 746 mmHg 80%
    01:00 +29°C° 0 mm 5 mps 746 mmHg 81%
    02:00 +28°C° 0 mm 5 mps 745 mmHg 82%
    03:00 +28°C° 0.2 mm 5 mps 745 mmHg 82%
    04:00 +28°C° 0.2 mm 5 mps 745 mmHg 82%
    05:00 +28°C° 0.2 mm 6 mps 745 mmHg 83%
    06:00 +28°C° 0.2 mm 6 mps 746 mmHg 82%
    07:00 +29°C° 0.2 mm 6 mps 746 mmHg 81%
    08:00 +29°C° 0.2 mm 6 mps 747 mmHg 80%
    09:00 +29°C° 0.2 mm 6 mps 747 mmHg 77%
    10:00 +30°C° 0.2 mm 7 mps 747 mmHg 75%
    11:00 +30°C° 0.2 mm 7 mps 747 mmHg 72%
    12:00 +32°C° 0.1 mm 7 mps 747 mmHg 71%
    13:00 +32°C° 0.1 mm 7 mps 746 mmHg 69%
    14:00 +32°C° 0.1 mm 7 mps 746 mmHg 68%
    15:00 +32°C° 0 mm 7 mps 745 mmHg 67%
    16:00 +33°C° 0 mm 7 mps 745 mmHg 67%
    17:00 +33°C° 0 mm 7 mps 745 mmHg 66%
    18:00 +32°C° 0 mm 6 mps 745 mmHg 69%
    19:00 +32°C° 0 mm 6 mps 746 mmHg 71%
    20:00 +30°C° 0 mm 5 mps 746 mmHg 73%
    21:00 +30°C° 0 mm 6 mps 746 mmHg 75%
    22:00 +29°C° 0 mm 6 mps 746 mmHg 76%
    23:00 +29°C° 0 mm 6 mps 747 mmHg 77%

    27 July, Friday

    Time Temperature Precipitation Wind Pressure Humidity
    00:00 +29°C° 0.1 mm 6 mps 746 mmHg 78%
    01:00 +29°C° 0.1 mm 6 mps 746 mmHg 78%
    02:00 +29°C° 0.1 mm 6 mps 745 mmHg 79%
    03:00 +29°C° 0.1 mm 6 mps 745 mmHg 79%
    04:00 +29°C° 0.1 mm 6 mps 745 mmHg 79%
    05:00 +29°C° 0.1 mm 6 mps 745 mmHg 80%
    06:00 +29°C° 0.1 mm 6 mps 746 mmHg 79%
    07:00 +29°C° 0.1 mm 7 mps 746 mmHg 77%
    08:00 +29°C° 0.1 mm 7 mps 746 mmHg 76%
    09:00 +30°C° 0.1 mm 7 mps 746 mmHg 74%
    10:00 +30°C° 0.1 mm 7 mps 746 mmHg 72%
    11:00 +32°C° 0.1 mm 7 mps 746 mmHg 70%
    12:00 +32°C° 0.1 mm 7 mps 746 mmHg 68%
    13:00 +33°C° 0.1 mm 7 mps 745 mmHg 67%
    14:00 +33°C° 0.1 mm 7 mps 745 mmHg 65%
    15:00 +33°C° 0.1 mm 7 mps 745 mmHg 66%
    16:00 +33°C° 0.1 mm 7 mps 745 mmHg 67%
    17:00 +33°C° 0.1 mm 6 mps 745 mmHg 68%
    18:00 +32°C° 0.1 mm 6 mps 745 mmHg 70%
    19:00 +32°C° 0.1 mm 6 mps 745 mmHg 72%
    20:00 +30°C° 0.1 mm 6 mps 746 mmHg 74%
    21:00 +30°C° 0.1 mm 7 mps 746 mmHg 74%
    22:00 +30°C° 0.1 mm 7 mps 746 mmHg 75%
    23:00 +29°C° 0.1 mm 7 mps 746 mmHg 76%
    Show more